Header for Extended Forecast Station List Page

Search by: ID | Name | Date | Parm | Value | Avg | % Avg
Sort by: ID | Name | Date | Parm | Value | Avg | % Avg

Enter search or view all records.

Click on id for station plot
#IDNameDateParmValueAvg% Avg
0BULO3BULLY CREEK-BULLY CREEK DAM08-08-2022INFLOW (KAF)10309
1MYKO3MCKAY CREEK-NEAR PILOT ROCK08-08-2022DISCHARGE (KAF)42203
2RIDI1WILLOW CREEK-RIRIE DAM08-08-2022INFLOW (KAF)3748
3WRMO3MALHEUR-WARM SPRINGS DAM08-08-2022INFLOW (KAF)1310131
4LWRI1LITTLE WOOD-LITTLE WOOD DAM08-08-2022INFLOW (KAF)1211109
5BERO3MALHEUR-AGENCY VALLEY DAM08-08-2022INFLOW (KAF)81263
6TNAW1TEANAWAY-BELOW FORKS08-08-2022DISCHARGE (KAF)1514110
7GIBO3UMATILLA-NEAR GIBBON08-08-2022DISCHARGE (KAF)1514112
8HOTI1BRUNEAU-NEAR HOT SPRINGS08-08-2022DISCHARGE (KAF)151691
9SATI1ST MARIES-NEAR SANTA08-08-2022DISCHARGE (KAF)151785
10DEDI1DEADWOOD-NEAR LOWMAN08-08-2022INFLOW (KAF)151787
11PDTO3UMATILLA-AT PENDLETON08-08-2022DISCHARGE (KAF)2319119
12TCHW1WALLA WALLA-NEAR TOUCHET08-08-2022DISCHARGE (KAF)3722166
13MAGI1BIG WOOD-MAGIC DAM08-08-2022INFLOW (KAF)152463
14BUDW1BUMPING-BUMPING LAKE DAM08-08-2022INFLOW (KAF)2925118
15ARDW1ENTIAT-NEAR ARDENVOIR08-08-2022DISCHARGE (KAF)2826108
16HWRI1BIG LOST-AT HOWELL RANCH NEAR CHILLY08-08-2022DISCHARGE (KAF)232686
17STRM8ST. REGIS-NEAR ST. REGIS08-08-2022DISCHARGE (KAF)272799
18PIHI1PORTNEUF-AT POCATELLO08-08-2022DISCHARGE (KAF)3030101
19KADW1KACHESS-KACHESS DAM08-08-2022INFLOW (KAF)3532108
20MONO3NF JOHN DAY-AT MONUMENT08-08-2022DISCHARGE (KAF)333399
21KEDW1YAKIMA-KEECHELUS LAKE08-08-2022INFLOW (KAF)4936135
22MILI1SNAKE-AT MILNER08-08-2022DISCHARGE (KAF)364091
23DLGM8CLARK FORK-AT DEER LODGE08-08-2022DISCHARGE (KAF)4841117
24HALI1BIG WOOD-AT HAILEY08-08-2022DISCHARGE (KAF)374287
25WSRI1WEISER-NEAR WEISER08-08-2022DISCHARGE (KAF)4342103
26UMAO3UMATILLA-NEAR UMATILLA08-08-2022DISCHARGE (KAF)7543174
27MACI1BIG LOST-MACKAY RESERVOIR NEAR MACKAY08-08-2022INFLOW (KAF)344477
28RCCM8ROCK CREEK-NEAR CLINTON08-08-2022DISCHARGE (KAF)5957102
29RILW1TIETON-RIMROCK LAKE NEAR RIMROCK08-08-2022INFLOW (KAF)7162114
30OWYO3OWYHEE-OWYHEE DAM08-08-2022INFLOW (KAF)596295
31SERO3JOHN DAY-AT SERVICE CK08-08-2022DISCHARGE (KAF)6363101
32ARAI1SF BOISE-ANDERSON RANCH DAM08-08-2022INFLOW (KAF)7965122
33CSDI1NF PAYETTE-CASCADE DAM08-08-2022INFLOW (KAF)6866103
34EASW1YAKIMA-AT EASTON08-08-2022DISCHARGE (KAF)556981
35CLUW1CLE ELUM-CLE ELUM LAKE08-08-2022INFLOW (KAF)10482126
36CLFW1NACHES-NEAR CLIFFDEL08-08-2022DISCHARGE (KAF)8383100
37LAUW1KETTLE-AT LAURIER08-08-2022DISCHARGE (KAF)10010397
38PATW1METHOW-NEAR PATEROS08-08-2022DISCHARGE (KAF)115106109
39CHEI1FALL RIVER-NEAR CHESTER08-08-2022DISCHARGE (KAF)10410996
40HODO3HOOD-NEAR TUCKER BRIDGE08-08-2022DISCHARGE (KAF)139109127
41DRMM8CLARK FORK-NR DRUMMOND08-08-2022DISCHARGE (KAF)115110105
42BIGI1BOISE-AT GLENWOOD BRIDGE08-08-2022DISCHARGE (KAF)9611882
43IPDI1HENRYS FORK-ISLAND PARK DAM08-08-2022INFLOW (KAF)136120113
44JLKW4SNAKE-JACKSON LAKE AT DAM08-08-2022INFLOW (KAF)134120112
45TEAI1TETON-NEAR ST. ANTHONY08-08-2022DISCHARGE (KAF)12913397
46BONM8BLACKFOOT-NEAR BONNER08-08-2022DISCHARGE (KAF)12514785
47UNDW1WHITE SALMON-NEAR UNDERWOOD08-08-2022DISCHARGE (KAF)181154118
48CHDW1CHELAN-LAKE CHELAN DAM08-08-2022INFLOW (KAF)234178131
49TRYO3GRANDE RONDE-TROY08-08-2022DISCHARGE (KAF)15217885
50PRTI1PRIEST-NEAR PRIEST RIVER08-08-2022DISCHARGE (KAF)194185105
51PITW1KLICKITAT-NEAR PITT08-08-2022DISCHARGE (KAF)236186127
52WGCM8MF FLATHEAD-NEAR WEST GLACIER08-08-2022DISCHARGE (KAF)207192108
53NACW1NACHES-NEAR NACHES08-08-2022DISCHARGE (KAF)5719929
54BITM8BITTERROOT-NEAR MISSOULA08-08-2022DISCHARGE (KAF)17620486
55PARI1BOISE-NEAR PARMA08-08-2022DISCHARGE (KAF)18320490
56HHWM8SF FLATHEAD-HUNGRY HORSE DAM08-08-2022INFLOW (KAF)210207102
57LUCI1BOISE-LUCKY PEAK DAM08-08-2022INFLOW (KAF)21422396
58FCFM8NF FLATHEAD-NEAR COLUMBIA FALLS08-08-2022DISCHARGE (KAF)257236109
59PESW1WENATCHEE-AT PESHASTIN08-08-2022DISCHARGE (KAF)292242121
60PARW1YAKIMA-NEAR PARKER08-08-2022DISCHARGE (KAF)18624277
61EMMI1PAYETTE-NEAR EMMETT08-08-2022DISCHARGE (KAF)294252117
62TONW1OKANOGAN-NEAR TONASKET08-08-2022DISCHARGE (KAF)334265126
63COEI1COEUR D ALENE-COEUR D ALENE LAKE08-08-2022INFLOW (KAF)23828185
64ANTI1HENRYS FORK-AT ST. ANTHONY08-08-2022DISCHARGE (KAF)30431796
65ABOM8CLARK FORK-ABOVE MISSOULA08-08-2022DISCHARGE (KAF)31333095
66REXI1HENRYS FORK-AT REXBURG08-08-2022DISCHARGE (KAF)382341112
67DWRI1NF CLEARWATER-DWORSHAK DAM08-08-2022INFLOW (KAF)30234887
68UMTW1YAKIMA-AT UMTANUM08-08-2022DISCHARGE (KAF)451419108
69ORFI1CLEARWATER-AT OROFINO08-08-2022DISCHARGE (KAF)45046896
70SPOW1SPOKANE-AT SPOKANE08-08-2022DISCHARGE (KAF)46347598
71KIOW1YAKIMA-AT KIONA08-08-2022DISCHARGE (KAF)45249791
72BELM8CLARK FORK-BELOW MISSOULA08-08-2022DISCHARGE (KAF)49054490
73BFTI1SNAKE-NEAR BLACKFOOT08-08-2022DISCHARGE (KAF)690610113
74LLKW1SPOKANE-AT LONGLAKE08-08-2022INFLOW (KAF)628622101
75JKSW4SNAKE-NEAR JACKSON08-08-2022DISCHARGE (KAF)54262487
76SNAI1SNAKE-AT BLACKFOOT08-08-2022DISCHARGE (KAF)680627109
77SRGM8CLARK FORK-AT ST REGIS08-08-2022DISCHARGE (KAF)64070291
78ALPW4SNAKE-NEAR ALPINE08-08-2022DISCHARGE (KAF)64673588
79SHYI1SNAKE-NEAR SHELLEY08-08-2022DISCHARGE (KAF)962963100
80SIFI1SNAKE-AB EAGLE ROCK NR IDAHO FALLS08-08-2022DISCHARGE (KAF)1039993105
81PLDI1SF SNAKE-PALISADES DAM08-08-2022INFLOW (KAF)897100290
82CFMM8FLATHEAD-AT COLUMBIA FALLS08-08-2022DISCHARGE (KAF)10371025101
83WHBI1SALMON-AT WHITEBIRD08-08-2022DISCHARGE (KAF)1031105498
84MODO3DESCHUTES-AT MOODY NR BIGGS08-08-2022DISCHARGE (KAF)1130113999
85AFRI1SNAKE-AMERICAN FALLS RESERVOIR08-08-2022INFLOW (KAF)13291176113
86KERM8FLATHEAD-SELI’Š KSANKA QLISPE’ DAM08-08-2022INFLOW (KAF)1179125994
87HEII1SNAKE-NEAR HEISE08-08-2022DISCHARGE (KAF)1215126496
88LYDM8KOOTENAI-LIBBY DAM08-08-2022INFLOW (KAF)14331295111
89SPDI1CLEARWATER-AT SPALDING08-08-2022DISCHARGE (KAF)15531403111
90SWAI1SNAKE-BELOW SWAN FALLS08-08-2022DISCHARGE (KAF)1717174299
91LEOI1KOOTENAI-AT LEONIA08-08-2022DISCHARGE (KAF)25942333111
92WEII1SNAKE-AT WEISER08-08-2022DISCHARGE (KAF)25642552100
93NOXM8CLARK FORK-NOXON RAPIDS DAM08-08-2022INFLOW (KAF)27112554106
94BRNI1SNAKE-BROWNLEE DAM08-08-2022INFLOW (KAF)27432623105
95CABI1CLARK FORK-CABINET GORGE DAM08-08-2022INFLOW (KAF)29842812106
96ALFW1PEND OREILLE-ALBENI FALLS DAM08-08-2022INFLOW (KAF)32252969109
97ANAW1SNAKE-NEAR ANATONE08-08-2022DISCHARGE (KAF)38483848100
98LGDW1SNAKE-LOWER GRANITE DAM08-08-2022INFLOW (KAF)53925324101
99LGSW1SNAKE-LITTLE GOOSE DAM08-08-2022INFLOW (KAF)53925336101
100LMNW1SNAKE-LOWER MONUMENTAL DAM08-08-2022INFLOW (KAF)54075338101
101IHDW1SNAKE-ICE HARBOR DAM08-08-2022INFLOW (KAF)54075350101
102GCDW1COLUMBIA-GRAND COULEE DAM08-08-2022INFLOW (KAF)2006319088105
103CHJW1COLUMBIA-CHIEF JOSEPH DAM08-08-2022INFLOW (KAF)1947219498100
104CIBW1COLUMBIA-AT INTL BOUNDARY08-08-2022DISCHARGE (KAF)192701955799
105WELW1COLUMBIA-WELLS DAM08-08-2022INFLOW (KAF)199402004999
106RRHW1COLUMBIA-ROCKY REACH DAM08-08-2022INFLOW (KAF)202332044299
107WANW1COLUMBIA-WANAPUM DAM08-08-2022INFLOW (KAF)205372081299
108PRWW1COLUMBIA-PRIEST RAPIDS DAM08-08-2022INFLOW (KAF)205392090398
109MCDW1COLUMBIA-MCNARY DAM08-08-2022INFLOW (KAF)265052665899
110JDAO3COLUMBIA-JOHN DAY DAM08-08-2022INFLOW (KAF)2710026923101
111TDAO3COLUMBIA-THE DALLES DAM08-08-2022INFLOW (KAF)2781327539101
112BONO3COLUMBIA-BONNEVILLE DAM08-08-2022INFLOW (KAF)2835528404100
113BFEI1KOOTENAI-AT BONNERS FERRY08-08-2022STAGE (FT)MMM
114HOPI1PEND OREILLE-PEND OREILLE LAKE NR HOPE08-08-2022LAKE ELEVATION (FT)MMM
115SJMI1ST JOE-AT ST MARIES08-08-2022STAGE (FT)MMM